Regional Weather Roundup
Issued by NWS Newport/Morehead, NC

Current Version | Previous Version | Text Only | Print | Product List | Glossary Off
Versions: 1 2 3 4 5 6 7 8 9 10 11 12 13 14 15 16 17 18 19 20 21 22 23 24 25 26 27 28 29 30 31 32 33 34 35 36 37 38 39 40 41 42 43 44 45 46 47 48 49 50

000
ASUS42 KMHX 231422
RWRMHX
WEATHER ROUNDUP FOR EASTERN NORTH CAROLINA
NATIONAL WEATHER SERVICE NEWPORT/MOREHEAD CITY NC
1000 AM EDT SAT AUG 23 2014

NOTE: "FAIR" INDICATES FEW OR NO CLOUDS BELOW 12,000 FEET
WITH NO SIGNIFICANT WEATHER AND/OR OBSTRUCTIONS TO VISIBILITY

NCZ015>017-031-032-045>047-102-103-231500-
NORTH COAST

CITY           SKY/WX    TMP DP  RH WIND       PRES   REMARKS
EDENTON        MOSUNNY   78  73  83 E7        29.98R
ELIZABETH CITY CLOUDY    79  71  76 NE10      29.97S
KITTY HAWK     MOSUNNY   80  71  74 NE7       29.97R
MANTEO         MOSUNNY   81  72  74 NE13      29.97R

$$

NCZ045>047-081-094-103-104-231500-
CENTRAL COAST

CITY           SKY/WX    TMP DP  RH WIND       PRES   REMARKS
FRISCO         PTSUNNY   80  73  79 E6        29.96R
SWANQUARTER      N/A     79 N/A N/A NE6       29.94R

$$

NCZ095-097-098-100-101-231500-
SOUTHERN COAST

CITY           SKY/WX    TMP DP  RH WIND       PRES   REMARKS
BEAUFORT       CLOUDY    79  74  84 NE3       29.96R
CEDAR ISLAND     N/A     81 N/A N/A N6        30.00S
JACKSONVILLE   CLOUDY    82  75  79 E9        29.94R
NEWPORT        NOT AVBL
PINEY ISLAND   CLOUDY    81  77  88 CALM      29.95R
WILMINGTON     PTSUNNY   82  76  81 E7        29.93S


$$

NCZ011>013-027>030-043-044-078>080-089-090>093-098-231500-
COASTAL PLAIN

CITY           SKY/WX    TMP DP  RH WIND       PRES   REMARKS
AHOSKIE        PTSUNNY   76  71  84 CALM      29.98S
CLINTON        PTSUNNY   80  75  86 CALM      29.96S
ELIZABETHTOWN  MOSUNNY   81  72  73 CALM      29.95R
GOLDSBORO      PTSUNNY   80  77  91 E9        29.95R
GREENVILLE     LGT RAIN  77  75  94 CALM      29.99R
HAVELOCK       PTSUNNY   80  74  81 E5        29.96R
KENANSVILLE    PTSUNNY   78  74  87 CALM      29.96S
KINSTON        PTSUNNY   79  73  83 NE6       29.97R
NEW BERN       CLOUDY    81  73  76 E5        29.97R
RICHLANDS      PTSUNNY   81  73  78 E6        29.95S
ROANOKE RAPIDS NOT AVBL
ROCKY MOUNT    PTSUNNY   77  74  90 NE3       29.98R FOG
WASHINGTON     PTSUNNY   78  73  84 CALM      29.98R
WHITEVILLE     PTSUNNY   81  75  82 CALM      29.93S

$$

AMZ130-135-150-152-154-156-158-170-250-252-270-ANZ085-086-088-633-658-670-231500-
MARINE OBSERVATIONS

STATION/POSITION TIME  TEMP    WIND        PRES    WAVE   SWELL
                       AIR SEA DIR/SP/G            HT/PER HT/PER
                 (UTC) (F)     (DEG/KT/KT) (MB)    (FT/S) (FT/S)
CHESAPEAKE LIGHT 1400   75      60/ 15/ 16 1016.0
BUOY 44014       1400   77 78   50/ 14/ 16 1014.3    3/ 5   2/ 8
DUCK             1400   78 80   60/  9/ 11 1014.4
2E DUCK          1400                        N/A     2/ 4
OREGON INLET     1400   79 81   40/ 10/ 12 1014.5
BUOY 44095       1400      80                N/A     2/ 8
20E OREGON INLET NOT AVBL
HATTERAS CG      1400   81 81   60/  5/  9 1014.9
DIAMOND BUOY     1400   78     350/  8/ 12 1014.0    2/ 8   2/ 8
CAPE LOOKOUT     1400   78      80/  5/  6 1014.2
BEAUFORT LAB     1400   79 83   40/  3/  4 1014.1
30 SE NEW RIVER  1400   81 83   70/ 12/ 12 1013.3    1/ 9   2/ 9
5 SE WRIGHTSVILL 1400   80 83  120/  8/ 10   N/A
BUOY 41002       1259   80 82   90/  2/  4 1014.8    2/ 5   2/ 5
BUOY 41004       1400   85 84  250/ 10/ 12 1012.6    2/ 4   2/ 7

$$


USA.gov is the U.S. government's official web portal to all federal, state and local government web resources and services.